Time,TemperatureF,DewpointF,PressureIn,WindDirection,WindDirectionDegrees,WindSpeedMPH,WindSpeedGustMPH,Humidity,HourlyPrecipIn,Conditions,Clouds,dailyrainin,SoftwareType,DateUTC
2013-03-05 00:00:00,32.5,20.0,29.91,ESE,113,1.0,7.0,61,0.00,,,0.00,weatherlink.com 1.10,2013-03-05 05:00:00,
2013-03-05 00:15:00,32.5,20.0,29.91,North,1,7.0,7.0,61,0.00,,,0.00,weatherlink.com 1.10,2013-03-05 05:15:00,
2013-03-05 00:30:00,32.5,20.0,29.92,NE,41,1.0,8.0,61,0.00,,,0.00,weatherlink.com 1.10,2013-03-05 05:30:00,
2013-03-05 00:45:00,32.4,21.0,29.92,NNE,20,5.0,7.0,62,0.00,,,0.00,weatherlink.com 1.10,2013-03-05 05:45:00,
2013-03-05 01:00:00,32.5,21.0,29.92,ENE,68,1.0,9.0,62,0.00,,,0.00,weatherlink.com 1.10,2013-03-05 06:00:00,
2013-03-05 01:15:00,32.5,21.0,29.92,North,359,4.0,10.0,63,0.00,,,0.00,weatherlink.com 1.10,2013-03-05 06:15:00,
2013-03-05 01:30:00,32.5,21.0,29.92,NE,49,3.0,9.0,63,0.00,,,0.00,weatherlink.com 1.10,2013-03-05 06:30:00,
2013-03-05 01:45:00,32.3,21.0,29.93,NNE,20,3.0,6.0,64,0.00,,,0.00,weatherlink.com 1.10,2013-03-05 06:45:00,
2013-03-05 02:00:00,32.1,21.0,29.93,NNW,345,2.0,6.0,65,0.00,,,0.00,weatherlink.com 1.10,2013-03-05 07:00:00,
2013-03-05 02:15:00,31.9,21.0,29.93,NNW,344,0.0,5.0,65,0.00,,,0.00,weatherlink.com 1.10,2013-03-05 07:15:00,
2013-03-05 02:30:00,31.9,21.0,29.93,NNW,345,0.0,6.0,65,0.00,,,0.00,weatherlink.com 1.10,2013-03-05 07:30:00,
2013-03-05 02:45:00,31.9,22.0,29.92,North,8,3.0,8.0,66,0.00,,,0.00,weatherlink.com 1.10,2013-03-05 07:45:00,
2013-03-05 03:00:00,31.9,22.0,29.92,NNE,20,4.0,6.0,66,0.00,,,0.00,weatherlink.com 1.10,2013-03-05 08:00:00,
2013-03-05 03:15:00,31.9,22.0,29.92,North,353,3.0,8.0,66,0.00,,,0.00,weatherlink.com 1.10,2013-03-05 08:15:00,
2013-03-05 03:30:00,31.7,22.0,29.93,NNE,30,4.0,6.0,67,0.00,,,0.00,weatherlink.com 1.10,2013-03-05 08:30:00,
2013-03-05 03:46:00,31.7,22.0,29.93,NE,35,1.0,4.0,67,0.00,,,0.00,weatherlink.com 1.10,2013-03-05 08:46:00,
2013-03-05 04:01:00,31.5,22.0,29.94,North,8,2.0,7.0,67,0.00,,,0.00,weatherlink.com 1.10,2013-03-05 09:01:00,
2013-03-05 04:17:00,31.5,22.0,29.94,NNW,335,3.0,7.0,67,0.00,,,0.00,weatherlink.com 1.10,2013-03-05 09:17:00,
2013-03-05 04:31:00,31.5,22.0,29.95,North,354,2.0,7.0,67,0.00,,,0.00,weatherlink.com 1.10,2013-03-05 09:31:00,
2013-03-05 04:46:00,31.4,22.0,29.95,NNE,30,1.0,5.0,67,0.00,,,0.00,weatherlink.com 1.10,2013-03-05 09:46:00,
2013-03-05 05:01:00,31.3,22.0,29.95,NNE,13,4.0,6.0,68,0.00,,,0.00,weatherlink.com 1.10,2013-03-05 10:01:00,
2013-03-05 05:16:00,31.2,22.0,29.96,North,355,0.0,6.0,68,0.00,,,0.00,weatherlink.com 1.10,2013-03-05 10:16:00,
2013-03-05 05:31:00,31.0,22.0,29.96,WNW,295,1.0,6.0,68,0.00,,,0.00,weatherlink.com 1.10,2013-03-05 10:31:00,
2013-03-05 05:46:00,31.0,22.0,29.97,ENE,60,0.0,3.0,69,0.00,,,0.00,weatherlink.com 1.10,2013-03-05 10:46:00,
2013-03-05 06:01:00,30.8,22.0,29.98,NNE,19,0.0,2.0,69,0.00,,,0.00,weatherlink.com 1.10,2013-03-05 11:01:00,
2013-03-05 06:16:00,30.5,21.0,29.98,WNW,290,0.0,0.0,69,0.00,,,0.00,weatherlink.com 1.10,2013-03-05 11:16:00,
2013-03-05 06:31:00,30.6,22.0,29.98,NE,42,1.0,5.0,70,0.00,,,0.00,weatherlink.com 1.10,2013-03-05 11:31:00,
2013-03-05 06:46:00,30.7,22.0,29.99,NNW,338,1.0,2.0,70,0.00,,,0.00,weatherlink.com 1.10,2013-03-05 11:46:00,
2013-03-05 07:01:00,30.9,22.0,29.99,NNW,345,0.0,3.0,69,0.00,,,0.00,weatherlink.com 1.10,2013-03-05 12:01:00,
2013-03-05 07:16:00,31.4,22.0,30.00,NE,41,1.0,4.0,69,0.00,,,0.00,weatherlink.com 1.10,2013-03-05 12:16:00,
2013-03-05 07:31:00,32.1,22.0,30.00,North,8,2.0,5.0,67,0.00,,,0.00,weatherlink.com 1.10,2013-03-05 12:31:00,
2013-03-05 07:46:00,32.7,22.0,30.01,ENE,72,1.0,9.0,65,0.00,,,0.00,weatherlink.com 1.10,2013-03-05 12:46:00,
2013-03-05 08:01:00,33.3,22.0,30.01,NE,34,0.0,5.0,64,0.00,,,0.00,weatherlink.com 1.10,2013-03-05 13:01:00,
2013-03-05 08:16:00,34.3,23.0,30.01,North,4,4.0,5.0,63,0.00,,,0.00,weatherlink.com 1.10,2013-03-05 13:16:00,
2013-03-05 08:31:00,35.0,23.0,30.01,ENE,77,1.0,6.0,62,0.00,,,0.00,weatherlink.com 1.10,2013-03-05 13:31:00,
2013-03-05 08:46:00,35.7,23.0,30.02,NNE,30,4.0,6.0,61,0.00,,,0.00,weatherlink.com 1.10,2013-03-05 13:46:00,
2013-03-05 09:01:00,36.1,23.0,30.02,ENE,63,1.0,7.0,60,0.00,,,0.00,weatherlink.com 1.10,2013-03-05 14:01:00,
2013-03-05 09:16:00,37.2,23.0,30.02,North,11,2.0,9.0,58,0.00,,,0.00,weatherlink.com 1.10,2013-03-05 14:16:00,
2013-03-05 09:31:00,38.5,24.0,30.02,NW,312,2.0,10.0,56,0.00,,,0.00,weatherlink.com 1.10,2013-03-05 14:31:00,
2013-03-05 09:47:00,39.4,24.0,30.01,North,1,4.0,9.0,55,0.00,,,0.00,weatherlink.com 1.10,2013-03-05 14:47:00,
2013-03-05 10:02:00,40.6,24.0,30.01,North,353,7.0,8.0,53,0.00,,,0.00,weatherlink.com 1.10,2013-03-05 15:02:00,
2013-03-05 10:17:00,41.3,25.0,30.00,NNE,21,2.0,7.0,52,0.00,,,0.00,weatherlink.com 1.10,2013-03-05 15:17:00,
2013-03-05 10:32:00,41.9,25.0,30.00,NW,319,3.0,9.0,51,0.00,,,0.00,weatherlink.com 1.10,2013-03-05 15:32:00,
2013-03-05 10:47:00,42.7,25.0,30.00,WNW,295,2.0,8.0,50,0.00,,,0.00,weatherlink.com 1.10,2013-03-05 15:47:00,
2013-03-05 11:02:00,42.8,26.0,30.00,ENE,58,4.0,8.0,51,0.00,,,0.00,weatherlink.com 1.10,2013-03-05 16:02:00,
2013-03-05 11:17:00,43.8,26.0,29.99,West,267,2.0,8.0,49,0.00,,,0.00,weatherlink.com 1.10,2013-03-05 16:17:00,
2013-03-05 11:32:00,44.7,26.0,29.99,WSW,239,0.0,6.0,48,0.00,,,0.00,weatherlink.com 1.10,2013-03-05 16:32:00,
2013-03-05 11:47:00,46.4,27.0,29.99,NW,312,1.0,4.0,47,0.00,,,0.00,weatherlink.com 1.10,2013-03-05 16:47:00,
2013-03-05 12:02:00,47.1,27.0,29.98,WNW,301,0.0,8.0,45,0.00,,,0.00,weatherlink.com 1.10,2013-03-05 17:02:00,
2013-03-05 12:17:00,48.1,26.0,29.98,NNE,19,2.0,6.0,43,0.00,,,0.00,weatherlink.com 1.10,2013-03-05 17:17:00,
2013-03-05 12:32:00,48.3,27.0,29.98,NNW,340,3.0,7.0,43,0.00,,,0.00,weatherlink.com 1.10,2013-03-05 17:32:00,
2013-03-05 12:47:00,48.8,27.0,29.97,NNE,25,0.0,6.0,43,0.00,,,0.00,weatherlink.com 1.10,2013-03-05 17:47:00,
2013-03-05 13:02:00,49.4,27.0,29.96,NW,324,0.0,5.0,42,0.00,,,0.00,weatherlink.com 1.10,2013-03-05 18:02:00,
2013-03-05 13:17:00,49.7,27.0,29.97,WSW,253,1.0,5.0,42,0.00,,,0.00,weatherlink.com 1.10,2013-03-05 18:17:00,
2013-03-05 13:32:00,50.0,27.0,29.97,NE,42,2.0,7.0,41,0.00,,,0.00,weatherlink.com 1.10,2013-03-05 18:32:00,
2013-03-05 13:47:00,50.8,27.0,29.97,SSE,166,2.0,4.0,40,0.00,,,0.00,weatherlink.com 1.10,2013-03-05 18:47:00,
2013-03-05 14:02:00,50.8,27.0,29.97,NNW,348,2.0,6.0,40,0.00,,,0.00,weatherlink.com 1.10,2013-03-05 19:02:00,
2013-03-05 14:17:00,50.4,27.0,29.97,NW,316,1.0,5.0,40,0.00,,,0.00,weatherlink.com 1.10,2013-03-05 19:17:00,
2013-03-05 14:32:00,49.3,26.0,29.96,NW,319,2.0,6.0,41,0.00,,,0.00,weatherlink.com 1.10,2013-03-05 19:32:00,
2013-03-05 14:47:00,49.1,27.0,29.96,North,11,1.0,5.0,42,0.00,,,0.00,weatherlink.com 1.10,2013-03-05 19:47:00,
2013-03-05 15:02:00,48.4,27.0,29.97,WNW,288,0.0,3.0,43,0.00,,,0.00,weatherlink.com 1.10,2013-03-05 20:02:00,
2013-03-05 15:17:00,48.1,26.0,29.96,West,267,0.0,4.0,43,0.00,,,0.00,weatherlink.com 1.10,2013-03-05 20:17:00,
2013-03-05 15:32:00,47.9,26.0,29.96,NNE,27,1.0,3.0,43,0.00,,,0.00,weatherlink.com 1.10,2013-03-05 20:32:00,
2013-03-05 15:47:00,47.8,26.0,29.96,NNE,23,0.0,4.0,43,0.00,,,0.00,weatherlink.com 1.10,2013-03-05 20:47:00,
2013-03-05 16:02:00,47.3,26.0,29.96,NNW,328,1.0,4.0,44,0.00,,,0.00,weatherlink.com 1.10,2013-03-05 21:02:00,
2013-03-05 16:17:00,47.0,26.0,29.95,NNW,335,0.0,5.0,44,0.00,,,0.00,weatherlink.com 1.10,2013-03-05 21:17:00,
2013-03-05 16:32:00,47.1,27.0,29.95,SW,235,1.0,2.0,46,0.00,,,0.00,weatherlink.com 1.10,2013-03-05 21:32:00,
2013-03-05 16:47:00,46.8,27.0,29.95,WSW,243,0.0,2.0,46,0.00,,,0.00,weatherlink.com 1.10,2013-03-05 21:47:00,
2013-03-05 17:02:00,46.3,26.0,29.96,SW,217,0.0,2.0,46,0.00,,,0.00,weatherlink.com 1.10,2013-03-05 22:02:00,
2013-03-05 17:17:00,45.9,27.0,29.96,WSW,255,0.0,2.0,47,0.00,,,0.00,weatherlink.com 1.10,2013-03-05 22:17:00,
2013-03-05 17:32:00,45.6,26.0,29.96,SSW,200,0.0,2.0,47,0.00,,,0.00,weatherlink.com 1.10,2013-03-05 22:32:00,
2013-03-05 17:47:00,45.1,26.0,29.97,SW,235,0.0,3.0,48,0.00,,,0.00,weatherlink.com 1.10,2013-03-05 22:47:00,
2013-03-05 18:02:00,44.8,27.0,29.98,SSW,210,0.0,1.0,49,0.00,,,0.00,weatherlink.com 1.10,2013-03-05 23:02:00,
2013-03-05 18:17:00,44.3,27.0,29.98,WSW,249,0.0,0.0,51,0.00,,,0.00,weatherlink.com 1.10,2013-03-05 23:17:00,
2013-03-05 18:32:00,43.6,27.0,29.99,WSW,246,0.0,0.0,53,0.00,,,0.00,weatherlink.com 1.10,2013-03-05 23:32:00,
2013-03-05 18:47:00,43.2,28.0,29.98,West,278,0.0,0.0,56,0.00,,,0.00,weatherlink.com 1.10,2013-03-05 23:47:00,
2013-03-05 19:02:00,42.8,28.0,29.99,WSW,257,0.0,0.0,56,0.00,,,0.00,weatherlink.com 1.10,2013-03-06 00:02:00,
2013-03-05 19:17:00,42.4,28.0,30.00,WSW,253,0.0,0.0,57,0.00,,,0.00,weatherlink.com 1.10,2013-03-06 00:17:00,
2013-03-05 19:32:00,41.8,27.0,29.99,NW,307,0.0,0.0,57,0.00,,,0.00,weatherlink.com 1.10,2013-03-06 00:32:00,
2013-03-05 19:47:00,41.5,27.0,30.00,WSW,258,0.0,0.0,57,0.00,,,0.00,weatherlink.com 1.10,2013-03-06 00:47:00,
2013-03-05 20:02:00,41.3,27.0,29.99,West,266,0.0,0.0,57,0.00,,,0.00,weatherlink.com 1.10,2013-03-06 01:02:00,
2013-03-05 20:17:00,40.9,27.0,29.99,West,266,0.0,0.0,58,0.00,,,0.00,weatherlink.com 1.10,2013-03-06 01:17:00,
2013-03-05 20:32:00,40.4,27.0,29.98,West,264,0.0,0.0,59,0.00,,,0.00,weatherlink.com 1.10,2013-03-06 01:32:00,
2013-03-05 20:47:00,40.3,28.0,29.99,SW,226,0.0,0.0,61,0.00,,,0.00,weatherlink.com 1.10,2013-03-06 01:47:00,
2013-03-05 21:02:00,40.2,28.0,29.99,SW,226,0.0,0.0,61,0.00,,,0.00,weatherlink.com 1.10,2013-03-06 02:02:00,
2013-03-05 21:17:00,39.7,27.0,29.99,SW,226,0.0,0.0,62,0.00,,,0.00,weatherlink.com 1.10,2013-03-06 02:17:00,
2013-03-05 21:32:00,39.7,27.0,30.00,SW,224,0.0,0.0,61,0.00,,,0.00,weatherlink.com 1.10,2013-03-06 02:32:00,
2013-03-05 21:47:00,40.4,28.0,30.00,SSW,210,0.0,0.0,62,0.00,,,0.00,weatherlink.com 1.10,2013-03-06 02:47:00,
2013-03-05 22:02:00,40.9,29.0,30.00,SSW,194,0.0,2.0,62,0.00,,,0.00,weatherlink.com 1.10,2013-03-06 03:02:00,
2013-03-05 22:17:00,41.1,28.0,29.99,SSW,193,0.0,2.0,60,0.00,,,0.00,weatherlink.com 1.10,2013-03-06 03:17:00,
2013-03-05 22:33:00,41.1,28.0,29.99,South,177,0.0,2.0,61,0.00,,,0.00,weatherlink.com 1.10,2013-03-06 03:33:00,
2013-03-05 22:48:00,40.9,29.0,29.99,SSW,200,0.0,3.0,63,0.00,,,0.00,weatherlink.com 1.10,2013-03-06 03:48:00,
2013-03-05 23:03:00,40.7,30.0,29.99,SSW,205,0.0,1.0,66,0.00,,,0.00,weatherlink.com 1.10,2013-03-06 04:03:00,
2013-03-05 23:18:00,40.5,31.0,29.98,SSW,195,0.0,1.0,69,0.00,,,0.00,weatherlink.com 1.10,2013-03-06 04:18:00,
2013-03-05 23:33:00,40.4,31.0,29.98,South,183,0.0,1.0,68,0.00,,,0.00,weatherlink.com 1.10,2013-03-06 04:33:00,
2013-03-05 23:48:00,40.7,29.0,29.97,South,183,0.0,1.0,63,0.00,,,0.00,weatherlink.com 1.10,2013-03-06 04:48:00,